TimeCDT,TemperatureF,Dew PointF,Humidity,Sea Level PressureIn,VisibilityMPH,Wind Direction,Wind SpeedMPH,Gust SpeedMPH,PrecipitationIn,Events,Conditions,WindDirDegrees,DateUTC
12:53 AM,46.0,41.0,83,30.01,10.0,Calm,Calm,-,N/A,,Clear,0,2012-11-01 05:53:00
1:53 AM,48.0,42.1,80,30.01,10.0,Calm,Calm,-,N/A,,Clear,0,2012-11-01 06:53:00
2:53 AM,46.9,42.1,83,30.00,10.0,Calm,Calm,-,N/A,,Clear,0,2012-11-01 07:53:00
3:53 AM,45.0,41.0,86,29.99,10.0,Calm,Calm,-,N/A,,Clear,0,2012-11-01 08:53:00
4:53 AM,46.0,41.0,83,29.99,10.0,Calm,Calm,-,N/A,,Clear,0,2012-11-01 09:53:00
5:53 AM,44.1,41.0,89,29.99,10.0,Calm,Calm,-,N/A,,Clear,0,2012-11-01 10:53:00
7:53 AM,42.1,39.0,89,30.00,10.0,Calm,Calm,-,N/A,,Clear,0,2012-11-01 12:53:00
8:53 AM,48.0,44.1,86,30.04,10.0,Calm,Calm,-,N/A,,Clear,0,2012-11-01 13:53:00
9:53 AM,55.9,45.0,67,30.04,10.0,Calm,Calm,-,N/A,,Clear,0,2012-11-01 14:53:00
11:53 AM,73.9,45.0,35,30.00,10.0,SW,6.9,-,N/A,,Clear,220,2012-11-01 16:53:00
12:53 PM,81.0,43.0,26,29.96,10.0,WSW,8.1,16.1,N/A,,Clear,240,2012-11-01 17:53:00
1:53 PM,84.0,41.0,22,29.93,10.0,West,9.2,18.4,N/A,,Clear,270,2012-11-01 18:53:00
2:53 PM,86.0,39.9,20,29.91,10.0,West,8.1,17.3,N/A,,Clear,270,2012-11-01 19:53:00
3:53 PM,87.1,37.9,18,29.90,10.0,WSW,8.1,16.1,N/A,,Clear,250,2012-11-01 20:53:00
4:53 PM,87.1,39.0,18,29.89,10.0,WSW,9.2,-,N/A,,Clear,250,2012-11-01 21:53:00
5:53 PM,84.0,43.0,24,29.88,10.0,West,3.5,-,N/A,,Clear,260,2012-11-01 22:53:00
6:53 PM,77.0,46.0,33,29.90,10.0,Calm,Calm,-,N/A,,Clear,0,2012-11-01 23:53:00
7:53 PM,66.9,46.0,47,29.92,10.0,Calm,Calm,-,N/A,,Clear,0,2012-11-02 00:53:00
8:53 PM,62.1,44.1,52,29.93,10.0,Calm,Calm,-,N/A,,Clear,0,2012-11-02 01:53:00
9:53 PM,57.9,44.1,60,29.93,10.0,Calm,Calm,-,N/A,,Clear,0,2012-11-02 02:53:00
10:53 PM,57.0,43.0,59,29.92,10.0,Calm,Calm,-,N/A,,Clear,0,2012-11-02 03:53:00
11:53 PM,54.0,43.0,66,29.91,10.0,Calm,Calm,-,N/A,,Clear,0,2012-11-02 04:53:00